Theta_e
347 350 350 351 351 351 351 349 346 345 347 348 348 348 347 346 345 344 345 346 346 346 345 344 345 347 346 344 344 343 344 345 345 347 347 346 345 345 347 349 348 347 349 349 350 352 351 349 349 351 352 352 353 353 353 353 353 353 353 351 351 353 353 353 355 355 353 351 350 348 347 346 346 347 345 345 346 344 342 341 341 340 338 336 337
346 349 349 349 350 351 351 350 348 347 348 348 348 348 348 347 346 345 345 345 346 346 346 346 346 347 346 345 344 344 345 346 345 347 348 347 346 347 348 348 347 347 349 349 347 348 349 346 345 348 352 353 354 354 354 353 352 352 353 353 353 354 353 350 352 354 353 350 349 348 347 346 346 345 344 343 344 342 340 340 339 338 336 335 336
344 347 349 349 350 350 350 350 349 348 348 348 348 347 347 347 347 346 345 345 346 346 346 346 346 347 347 345 345 345 346 347 347 347 348 348 349 350 351 352 352 350 351 351 349 348 347 345 346 350 353 354 354 354 353 353 352 352 353 353 352 353 353 349 348 352 353 350 348 348 347 346 345 344 343 342 342 341 339 337 338 338 336 335 335
344 345 347 349 351 352 351 350 350 349 349 348 348 347 347 347 347 347 346 345 346 346 345 346 346 347 347 347 346 346 346 347 347 347 347 348 350 351 351 352 353 352 353 353 353 352 349 347 349 352 353 354 354 354 354 352 351 351 353 352 350 349 351 350 348 350 350 349 348 347 347 346 345 343 343 342 341 341 339 338 338 337 336 336 335
345 346 346 347 349 352 352 352 349 349 348 348 348 348 347 347 347 347 346 346 345 345 346 346 347 347 348 348 347 347 347 347 347 347 347 348 350 351 353 352 352 351 352 353 353 353 351 350 351 352 354 354 354 355 354 350 349 351 352 353 351 350 350 350 350 350 348 348 348 348 347 346 343 341 342 342 341 341 340 338 336 335 336 335 334
343 345 345 346 347 348 350 352 351 350 348 348 348 348 348 347 347 347 347 346 346 346 346 346 347 347 348 348 348 347 347 347 348 348 348 348 349 350 353 354 352 352 352 353 353 352 352 350 349 351 353 354 354 354 351 347 347 349 349 349 349 349 349 348 349 350 349 349 348 347 347 346 343 342 342 341 340 340 340 338 334 335 334 331 330
345 344 345 345 345 345 346 348 351 351 350 349 347 348 348 348 348 348 347 347 346 345 345 346 347 347 347 348 348 348 348 347 348 349 348 348 348 350 353 353 354 353 353 352 353 354 354 350 348 349 349 350 352 353 352 348 346 346 346 345 345 345 347 348 348 349 349 348 347 346 346 345 343 342 341 340 338 338 339 338 336 334 331 327 326
346 346 346 346 346 345 344 345 347 348 349 349 347 347 348 348 348 347 347 348 347 346 346 345 346 346 346 348 348 348 348 348 349 349 348 346 345 348 352 354 353 353 353 352 352 354 353 350 348 349 347 348 349 350 350 348 345 345 345 346 347 346 346 348 347 346 346 346 344 344 345 344 342 340 339 338 337 337 338 337 336 333 329 327 326
347 347 347 347 347 347 346 345 346 345 346 347 346 346 346 347 349 349 349 349 348 347 346 345 345 345 346 346 347 348 349 349 349 348 347 346 345 348 352 353 353 352 352 353 352 351 350 349 348 348 346 346 347 347 348 346 345 345 345 346 347 347 346 346 346 346 346 344 343 343 343 342 340 339 338 337 336 337 337 336 333 330 329 329 327
350 349 348 347 347 347 346 346 347 346 346 346 347 346 346 345 346 345 347 349 349 349 348 347 345 344 345 346 347 348 349 350 349 345 343 345 347 349 352 354 354 351 349 351 350 349 350 350 348 347 346 347 347 348 348 347 346 345 345 345 347 347 346 346 346 346 345 343 343 343 342 339 338 338 338 337 336 336 336 334 331 329 328 327 324
352 351 350 350 348 348 347 347 347 347 347 347 348 347 347 347 346 343 342 343 345 346 347 348 347 346 346 346 347 349 349 350 349 344 339 340 343 348 351 353 354 352 348 348 349 349 349 350 349 348 347 347 348 348 348 348 346 344 344 344 345 344 344 345 345 344 343 343 344 343 340 338 338 338 337 337 336 334 333 331 329 327 326 325 322
352 351 352 352 351 351 350 349 349 348 349 349 348 348 347 348 349 348 346 344 342 341 341 342 345 346 348 347 347 349 348 349 349 346 342 339 340 344 348 350 354 355 351 349 349 349 349 349 349 349 348 347 348 348 348 347 346 344 344 345 344 342 341 342 343 343 343 343 343 341 339 338 338 338 337 337 334 332 332 330 327 326 324 324 324
353 352 352 352 352 352 351 351 350 350 350 350 350 349 348 348 348 349 350 349 347 346 343 340 339 341 345 347 346 347 348 347 348 348 345 341 339 342 344 347 352 353 351 348 348 348 348 347 347 348 348 348 347 347 347 346 346 346 345 345 342 341 340 340 341 343 342 341 341 340 339 338 338 337 336 336 334 333 332 329 326 326 325 324 322
352 352 352 352 353 352 352 352 351 351 351 351 350 350 350 350 350 349 349 350 350 350 348 346 342 339 340 342 342 343 346 346 346 347 346 341 338 339 340 344 347 348 347 347 347 348 347 346 346 347 348 349 348 347 346 344 346 346 345 343 341 340 340 340 341 341 341 340 340 339 339 338 337 337 336 335 334 332 330 327 326 326 324 320 314
351 350 350 351 351 351 352 352 352 352 352 351 351 351 351 351 351 350 350 350 350 350 350 349 347 344 340 339 338 340 343 344 342 342 341 338 335 335 336 339 342 344 346 346 347 347 347 346 346 347 349 349 349 348 346 344 345 346 344 342 340 340 340 340 340 340 339 339 339 339 338 338 338 337 335 334 332 329 327 326 323 319 314 310 306
350 350 350 351 351 351 351 351 352 352 351 352 352 351 351 351 352 352 352 352 352 351 351 350 350 348 346 343 341 339 339 340 339 337 335 333 334 335 336 336 338 342 344 346 346 346 346 346 347 347 348 348 348 348 347 346 347 346 343 341 339 339 339 339 339 339 339 339 338 337 337 336 336 335 333 332 330 327 324 319 313 310 307 304 303
350 350 349 350 350 350 349 349 350 351 350 351 351 351 351 351 352 352 352 352 353 352 352 352 351 351 350 348 347 344 341 340 338 336 335 336 339 341 340 337 337 340 343 345 345 346 347 347 347 347 348 347 346 347 348 347 347 346 343 341 339 338 339 339 339 339 338 337 335 335 335 334 332 331 331 329 325 320 314 309 306 305 303 302 306
349 348 348 348 347 347 346 347 348 349 349 349 349 349 350 350 351 351 350 351 351 351 351 352 352 352 352 351 351 350 348 347 345 343 342 343 345 347 345 342 340 341 343 344 345 346 346 347 347 348 348 347 346 348 349 348 348 346 342 340 339 338 338 339 338 337 335 333 331 330 330 327 324 326 325 322 315 309 306 304 304 304 303 306 310
347 347 346 346 345 345 345 345 347 347 347 348 348 348 348 348 349 350 350 351 351 351 352 352 351 351 352 351 352 351 351 350 349 348 348 347 348 348 348 347 345 343 344 345 346 346 345 346 346 347 347 346 346 348 348 347 346 343 341 339 337 337 337 337 335 332 329 327 324 322 321 317 314 315 314 310 305 304 304 304 303 304 307 310 310
346 345 343 341 341 341 342 343 345 345 346 346 347 347 347 348 348 348 349 349 350 351 352 352 351 350 350 351 351 351 350 350 348 348 348 348 349 349 349 350 348 346 346 347 348 348 346 346 346 345 344 345 347 348 348 345 342 340 339 337 335 337 337 334 329 324 322 318 315 312 311 309 308 307 306 304 303 303 303 303 303 306 310 312 312
343 341 339 337 338 340 341 342 344 344 343 344 344 345 345 347 347 348 348 349 349 349 350 351 351 350 350 350 350 349 350 350 349 348 346 347 348 348 349 349 349 348 348 348 348 348 347 347 347 345 344 345 347 348 347 345 341 337 335 334 335 335 332 326 321 317 314 311 308 307 306 304 304 304 303 303 303 303 303 304 303 305 309 311 312
340 340 338 338 338 339 340 341 342 342 342 343 342 343 343 344 345 346 346 347 347 347 347 349 349 349 349 350 350 350 350 351 351 350 348 347 347 347 348 348 348 348 348 348 347 347 346 346 346 345 345 346 347 347 346 344 339 333 332 332 332 329 325 321 319 315 311 308 306 305 304 303 304 303 302 303 303 303 303 303 302 303 304 304 306
341 341 340 339 338 339 340 340 341 341 341 340 340 340 341 341 342 342 344 344 344 344 345 346 347 347 348 348 349 350 350 351 351 350 349 348 347 347 347 347 348 348 347 347 347 346 345 346 345 345 345 345 346 347 345 341 335 330 329 329 327 324 321 319 316 312 309 308 307 305 304 304 303 302 302 302 302 302 303 303 302 302 301 300 301
342 341 340 340 339 339 339 340 340 339 338 337 337 339 339 340 340 340 341 342 342 343 344 345 345 346 347 347 348 348 349 349 350 350 349 349 348 348 348 348 348 347 347 347 346 346 346 345 345 345 345 345 346 346 344 338 331 327 326 324 323 322 320 316 312 311 310 310 307 305 304 303 302 302 302 302 302 303 303 303 301 300 301 301 300
343 342 340 340 341 340 340 339 339 338 336 336 338 339 338 339 339 339 339 340 341 342 343 344 345 346 346 347 347 348 348 348 348 349 349 349 349 349 349 349 348 348 347 347 347 347 347 346 345 345 344 345 345 345 341 334 327 324 323 321 320 320 318 315 313 312 311 309 307 304 303 302 302 302 302 302 302 302 302 302 301 300 300 300 300
343 341 340 340 341 341 340 339 339 336 335 336 338 338 337 338 339 339 339 339 340 340 341 342 343 345 345 345 346 347 347 346 346 346 347 348 349 349 349 349 349 348 347 346 346 347 347 345 344 343 340 339 338 338 334 327 322 322 321 318 316 317 318 316 314 313 310 308 305 303 302 302 302 302 303 302 302 302 301 300 300 301 301 301 301
342 341 341 340 340 341 340 339 338 336 334 336 336 336 336 337 336 336 337 338 338 339 339 339 340 341 342 342 343 344 344 344 344 344 345 346 346 347 347 347 347 347 346 345 345 345 344 342 339 337 334 329 327 325 323 320 319 320 318 314 313 315 316 315 313 312 310 306 303 302 302 302 302 302 302 302 301 301 300 301 303 304 303 303 304
342 341 340 339 340 340 339 338 338 336 333 335 335 335 336 336 335 334 335 336 337 337 337 337 338 338 339 339 339 340 340 340 340 340 341 342 343 344 344 344 345 344 344 344 343 342 339 334 329 326 326 324 323 322 321 321 321 319 314 311 311 311 312 311 309 307 305 303 302 302 302 302 302 302 302 302 301 301 301 302 305 305 304 305 307
341 340 340 339 339 339 339 339 339 336 333 333 334 334 335 335 334 333 334 335 336 336 336 337 337 337 338 338 337 338 337 335 335 335 336 336 336 338 339 340 340 340 340 341 340 337 334 329 325 323 325 325 325 324 323 322 320 316 312 311 310 308 309 309 306 304 303 302 302 302 302 302 302 302 302 301 301 301 301 302 302 302 305 308 310
340 340 340 339 338 338 338 339 338 337 335 334 333 333 335 335 334 333 334 335 336 336 336 336 336 336 336 335 334 335 333 331 331 332 332 332 332 332 333 334 335 336 336 336 336 334 330 327 325 325 326 326 326 323 321 319 316 313 311 310 308 307 307 306 304 302 302 302 302 302 302 303 303 302 302 303 301 300 301 301 299 301 305 310 311
340 340 340 339 338 338 337 337 338 337 335 334 333 334 335 336 335 334 333 335 336 336 336 336 335 334 333 332 332 332 331 330 331 332 333 332 331 331 331 331 332 333 333 332 332 331 328 326 325 324 324 324 323 321 319 316 313 312 311 309 307 306 305 303 302 302 302 302 303 303 303 303 303 303 303 303 302 301 300 300 299 302 307 310 310
340 339 339 338 338 337 337 337 338 337 336 333 333 334 336 336 336 335 334 334 335 336 336 335 334 333 332 332 332 332 331 331 331 332 333 332 331 331 331 330 330 331 330 329 328 327 325 325 324 323 321 320 320 319 317 315 313 312 310 308 307 305 303 302 302 301 302 303 303 302 303 303 303 303 303 302 301 301 301 300 300 304 309 311 310
340 339 338 338 337 336 336 337 337 337 337 335 335 335 336 337 337 337 335 334 334 336 336 334 333 333 333 334 334 334 333 331 331 332 333 333 331 331 330 330 329 328 327 327 326 325 324 323 322 320 319 319 318 316 314 313 312 311 310 308 306 304 302 302 301 301 302 303 302 302 302 302 302 303 303 302 301 302 302 302 303 306 309 310 310
340 338 337 337 338 337 336 336 337 336 336 335 336 336 336 336 337 337 336 335 335 335 336 335 335 333 333 334 335 335 335 333 332 332 333 333 332 331 330 329 327 325 325 326 326 325 324 322 321 320 319 317 315 314 313 313 312 311 309 307 305 303 301 301 301 301 302 302 302 302 302 302 303 303 302 302 303 304 304 306 307 308 310 310 310
340 337 335 335 337 337 336 336 336 335 335 335 336 336 336 336 336 336 336 336 335 334 335 335 335 334 334 333 333 334 336 335 333 332 333 333 332 331 330 328 326 325 325 326 325 324 323 323 322 320 318 316 315 314 314 313 312 310 309 306 304 302 301 301 301 302 302 302 302 302 303 303 304 304 305 305 306 307 308 309 309 309 310 310 309
339 337 335 335 337 337 336 336 335 335 335 336 336 335 335 336 336 335 335 335 334 334 335 335 335 334 334 333 333 334 335 335 333 332 333 333 332 330 329 328 326 326 326 325 324 323 322 321 320 318 316 316 316 315 314 313 311 310 307 304 303 302 301 301 302 301 302 304 304 303 304 305 306 307 308 308 308 309 309 309 308 309 309 309 309
337 337 336 336 336 336 336 336 335 335 335 335 335 335 335 335 334 333 333 333 333 334 334 335 335 334 334 334 334 334 334 334 334 332 332 333 331 330 328 327 326 326 326 325 323 322 321 320 319 318 317 317 316 316 315 314 312 309 306 303 302 302 301 303 303 301 303 308 308 304 305 307 307 307 309 309 308 309 309 308 308 308 308 308 309
337 336 335 334 335 336 336 335 335 336 336 336 336 335 335 335 334 333 331 331 332 333 334 335 335 334 334 334 333 333 333 333 333 332 331 331 331 329 328 327 326 325 325 323 322 321 321 320 319 319 318 317 316 315 314 313 312 310 305 302 303 303 302 304 304 302 305 310 309 305 306 308 307 306 308 308 308 309 309 308 308 308 306 305 307
336 334 332 330 332 335 336 336 336 336 337 336 336 335 335 335 334 332 331 330 331 332 332 333 334 333 333 333 333 333 332 332 332 331 330 330 330 328 327 327 326 325 325 323 322 321 321 320 319 318 317 316 315 314 313 312 311 308 304 303 305 304 304 306 305 303 307 311 310 307 307 308 306 305 307 308 308 309 309 308 308 308 306 304 305
336 335 332 330 330 332 334 336 336 335 335 335 335 335 335 334 334 333 331 330 331 332 331 332 333 333 332 332 333 332 331 332 331 331 330 330 329 327 327 326 326 325 325 324 323 323 322 319 317 316 316 315 314 314 313 312 311 307 304 306 307 305 304 307 307 305 308 312 311 308 308 307 305 305 307 308 308 308 308 308 308 308 307 306 306
338 337 335 333 331 332 334 335 336 335 335 334 334 335 335 334 334 333 332 330 331 332 331 330 331 332 331 331 332 331 331 330 330 330 330 329 328 327 326 326 325 325 325 324 323 323 320 317 315 315 315 315 314 315 314 314 313 310 308 309 309 307 306 308 308 307 309 312 310 308 307 306 305 305 308 308 307 307 307 307 307 307 307 307 307
337 337 336 335 332 332 333 334 334 335 336 335 335 335 335 334 334 334 332 331 330 331 330 330 330 331 331 330 330 330 329 328 329 329 328 327 327 326 325 325 325 324 323 321 320 319 317 315 314 315 316 316 315 315 315 314 314 313 312 311 311 309 308 310 309 308 309 311 309 307 307 306 304 306 308 307 306 306 307 307 307 307 306 307 307
335 335 335 334 334 333 333 333 334 334 335 336 336 335 335 335 334 334 333 332 330 330 330 330 330 331 331 329 329 329 328 327 327 328 327 326 325 325 326 326 325 322 320 319 318 317 316 315 315 316 317 316 316 316 316 315 315 315 313 313 313 311 310 311 310 307 308 310 309 307 307 305 304 305 307 306 306 307 307 307 307 307 306 307 307
333 334 334 334 334 332 332 332 333 333 333 334 335 335 335 335 334 334 333 333 331 330 329 329 329 330 330 330 328 328 327 327 326 326 325 325 326 326 326 326 323 320 319 319 318 317 317 317 317 318 318 317 316 316 316 316 315 315 314 314 313 312 311 311 310 307 307 309 309 307 306 305 304 305 306 305 306 308 308 307 307 307 307 307 307
333 334 333 333 333 332 330 328 328 330 332 332 333 334 334 333 334 333 333 332 331 330 329 329 329 328 329 329 329 328 327 326 326 325 325 326 326 325 325 324 322 319 319 319 319 318 318 319 319 319 318 318 317 317 317 316 316 316 315 314 314 313 312 311 309 306 306 308 308 307 306 305 305 306 307 306 306 308 308 308 307 307 306 307 307
335 334 333 332 332 331 330 327 325 326 329 331 332 333 333 332 332 332 332 332 331 330 329 329 328 327 328 328 328 328 327 325 325 325 325 325 325 323 323 322 320 318 319 320 320 319 319 320 320 319 319 318 318 317 317 317 316 316 315 315 314 313 312 311 310 307 305 306 307 308 307 306 305 305 306 307 306 307 308 308 308 307 306 306 307
335 335 334 333 332 330 330 330 327 325 327 330 331 333 333 332 332 331 331 331 330 330 329 329 328 327 327 326 326 327 327 326 325 324 324 323 323 322 322 321 319 318 319 321 321 320 319 320 321 320 320 319 318 318 317 317 317 316 316 315 314 313 312 311 310 307 304 303 306 308 308 307 305 305 306 306 307 307 308 308 308 307 306 305 306
335 335 334 335 334 332 331 331 329 327 327 329 330 331 331 332 332 332 331 331 330 330 330 329 329 328 328 326 325 325 325 325 325 325 323 321 319 320 319 318 317 317 319 320 320 320 320 320 320 320 320 319 318 317 317 317 317 316 315 315 314 312 311 310 309 307 304 302 304 307 308 307 307 306 306 305 306 308 308 307 307 307 306 305 305
335 335 335 335 335 334 333 332 331 330 330 330 331 331 330 330 330 330 330 330 330 330 330 330 329 329 329 328 327 325 324 323 324 325 324 322 319 318 317 316 314 315 318 320 320 319 320 320 320 320 320 319 318 317 317 317 316 316 316 315 313 310 307 306 305 305 303 301 302 306 307 307 307 308 307 305 306 307 308 307 307 307 306 306 306
336 335 335 335 335 335 334 334 333 332 331 331 331 331 331 330 330 329 329 329 329 329 329 330 330 330 330 329 329 328 326 323 322 323 324 324 322 319 316 314 313 313 316 318 320 319 318 319 319 319 319 318 318 317 316 316 316 315 315 314 312 310 307 306 304 303 302 302 302 305 306 306 307 308 307 306 306 307 307 307 307 307 306 306 306
336 336 335 335 335 335 334 334 334 334 333 332 332 331 331 331 331 331 330 330 329 329 328 328 329 330 330 330 330 329 328 326 324 323 324 324 323 321 318 316 314 314 314 316 318 319 318 318 318 319 318 318 318 318 317 317 316 315 314 313 311 310 310 310 308 307 306 305 305 305 306 306 307 307 308 307 307 307 307 307 307 307 306 306 306
Wind_Speed
15 16 15 15 15 15 15 16 17 19 20 20 19 19 19 20 20 20 20 19 18 18 19 19 18 16 15 15 15 15 15 15 16 15 16 17 17 15 14 15 16 15 13 13 13 12 11 12 12 11 11 10 9 9 8 8 8 7 8 8 7 7 7 7 6 6 6 5 4 5 7 8 6 5 4 5 6 6 5 5 4 3 2 1 1
15 16 16 15 16 16 15 15 16 17 19 20 20 20 19 19 20 20 20 20 20 19 18 19 18 18 17 17 16 16 16 17 16 16 16 17 17 16 15 15 17 16 14 15 16 14 13 14 13 11 10 10 10 9 8 8 8 7 8 7 6 6 7 7 6 5 6 8 8 8 7 6 5 3 1 3 6 7 7 8 8 6 4 2 1
16 17 17 16 17 16 16 16 16 17 19 20 21 21 20 19 20 20 20 20 20 20 19 19 18 18 18 18 18 18 17 17 17 17 17 17 17 17 15 15 16 16 15 15 15 15 14 14 13 11 10 10 10 9 9 9 8 8 8 8 7 7 7 8 8 6 6 8 9 8 6 4 3 2 1 4 7 8 9 9 8 7 4 2 2
17 19 19 18 17 16 17 17 17 17 18 20 21 21 21 20 20 20 21 21 21 20 20 20 19 19 19 19 19 19 19 19 18 18 17 18 18 18 17 17 17 16 15 15 15 15 15 14 13 11 11 11 10 10 10 10 9 8 8 9 9 9 8 9 9 8 8 9 8 8 7 4 3 3 4 7 8 9 9 8 7 5 3 3 3
15 17 19 19 18 17 17 17 18 18 18 19 20 21 21 21 20 21 21 22 22 21 21 21 21 20 20 20 19 19 19 20 20 19 18 18 18 18 18 18 19 18 16 16 17 16 15 15 14 12 12 11 10 10 11 11 10 9 8 8 9 9 9 9 9 9 10 11 11 11 9 6 6 5 6 7 7 9 10 9 7 5 2 3 3
13 13 14 15 17 17 17 17 17 18 18 18 19 20 21 21 21 21 21 22 23 22 22 21 21 22 22 21 20 20 20 20 21 21 20 18 18 18 18 18 19 18 17 17 17 17 17 16 15 14 13 12 11 11 12 12 11 10 10 10 10 9 10 10 9 8 10 14 14 12 10 9 8 7 6 6 6 8 11 11 8 6 4 2 1
16 15 14 13 13 14 16 17 17 17 18 18 18 18 19 20 21 21 21 22 23 23 23 23 22 22 22 23 22 22 21 21 21 22 21 21 20 19 18 18 18 18 17 17 17 17 17 17 16 16 16 14 13 12 13 13 13 12 12 12 11 11 10 9 8 9 13 16 15 13 12 11 10 8 6 8 9 8 11 13 10 7 4 4 4
20 20 19 17 15 14 14 15 17 18 19 19 18 19 19 19 20 20 20 21 22 23 24 24 24 23 23 23 23 23 23 23 23 23 23 23 22 20 19 19 19 18 18 18 19 20 20 19 17 17 18 17 16 15 15 15 14 13 13 12 10 10 9 9 10 12 15 16 15 13 11 11 11 10 9 11 12 11 12 12 9 6 4 5 6
21 21 21 21 20 18 15 14 16 18 20 20 19 19 19 20 20 20 20 20 21 22 23 24 24 24 24 24 24 23 24 24 25 26 25 24 22 21 21 20 20 21 20 20 22 22 21 20 19 19 20 19 18 17 17 17 15 14 14 12 9 8 9 10 11 13 15 15 13 11 10 11 13 12 12 12 11 12 13 11 8 7 6 6 7
17 18 20 21 20 20 19 18 17 18 19 21 20 19 19 21 22 22 22 22 21 21 21 22 24 24 24 24 24 24 24 25 26 28 27 25 22 20 19 19 21 24 24 23 23 21 20 21 21 22 22 21 20 20 19 19 17 16 16 14 11 9 9 10 13 15 13 12 13 12 10 11 12 12 12 12 11 11 12 13 11 9 8 7 6
13 15 16 16 17 18 19 19 19 19 18 19 20 20 20 20 20 21 23 23 24 24 23 23 23 24 24 24 24 24 24 25 27 29 28 26 24 21 19 18 20 24 24 23 23 23 22 22 22 22 22 21 21 21 21 20 19 17 17 17 15 13 11 11 13 13 10 10 13 12 10 10 11 13 14 14 13 13 14 14 13 10 8 7 6
12 13 13 13 14 16 18 18 19 20 19 18 18 19 20 21 20 20 21 22 23 25 26 27 26 25 25 25 25 24 24 24 26 28 28 27 25 24 22 19 19 22 23 24 25 25 23 22 23 23 23 22 22 22 22 22 20 18 17 17 17 16 14 13 12 11 10 9 10 10 11 11 12 14 15 15 15 16 15 14 12 9 8 7 6
10 11 11 12 13 15 16 18 19 20 20 19 18 18 19 20 22 22 22 22 22 22 24 26 28 28 27 27 27 26 25 25 25 26 28 28 26 25 24 21 21 24 26 27 26 25 23 23 24 24 23 23 23 23 23 22 20 18 18 18 17 15 14 13 12 11 10 9 11 11 10 10 12 15 16 15 14 14 14 13 11 9 8 7 6
9 9 10 11 12 14 15 16 18 19 19 19 19 20 20 20 22 23 24 24 25 24 23 24 26 28 29 29 30 29 28 27 28 28 30 30 28 26 25 24 27 29 29 29 27 25 23 23 23 24 25 24 24 24 24 22 19 18 18 18 17 14 12 12 12 13 11 10 12 12 10 11 13 15 14 14 13 11 11 10 9 7 7 6 6
8 9 10 11 11 12 13 15 16 18 18 19 20 21 22 22 22 23 24 25 26 26 26 25 26 27 29 29 31 31 30 29 30 32 33 32 30 27 26 28 30 31 31 30 28 26 25 24 23 24 25 25 25 25 25 23 20 19 19 19 17 14 14 14 15 16 15 12 11 11 11 12 13 12 11 11 12 11 10 8 7 6 6 6 6
7 8 9 10 11 12 14 15 16 17 17 18 19 21 23 23 23 22 22 23 23 24 25 25 25 26 28 28 28 30 30 30 31 32 32 30 28 26 26 28 31 32 31 30 27 24 24 25 25 24 24 26 27 26 25 24 22 21 20 19 17 14 13 14 15 16 15 13 11 11 11 10 10 11 11 11 12 12 10 9 8 7 7 6 5
6 7 8 9 10 11 12 13 13 14 15 16 18 19 22 23 23 23 24 23 23 24 24 24 24 24 26 26 26 27 29 30 31 30 29 27 25 24 25 28 31 31 30 30 28 25 23 24 24 23 24 27 28 26 24 24 24 23 21 19 17 15 13 15 17 16 16 15 14 12 11 11 11 12 13 13 13 12 10 9 9 8 7 5 5
5 5 5 5 6 8 10 11 11 12 13 14 15 17 18 20 21 22 23 23 25 27 26 25 25 25 25 25 25 26 26 27 28 28 27 26 25 24 26 27 29 30 30 32 31 27 24 24 24 23 24 27 28 26 26 27 27 25 22 19 18 16 16 18 19 19 18 17 15 13 12 12 13 14 15 15 13 12 11 9 9 8 6 6 7
4 3 3 3 5 6 7 9 9 10 11 13 14 15 16 17 18 20 20 21 22 23 24 26 28 28 27 26 27 27 27 27 28 27 27 27 26 26 26 27 28 30 31 32 31 28 26 27 26 24 25 28 28 26 27 30 28 24 20 18 18 18 18 19 20 19 18 17 15 14 14 14 14 15 14 14 13 12 10 9 8 7 6 7 8
3 3 4 4 5 5 6 8 8 10 11 12 13 15 15 16 17 19 20 20 21 21 21 23 27 29 28 27 28 28 28 30 31 31 29 28 28 28 27 27 28 31 31 31 30 29 28 28 27 26 28 30 28 27 29 29 25 20 18 17 18 19 20 20 20 18 16 15 13 13 13 14 14 14 13 13 12 10 9 8 8 8 7 7 6
4 4 4 4 4 5 5 5 6 7 8 9 10 13 15 16 16 17 18 18 20 22 22 22 25 28 28 27 27 28 28 28 31 33 32 31 29 30 30 30 30 31 31 30 30 30 29 27 27 28 30 31 29 29 30 28 22 20 20 20 19 20 21 21 20 17 14 13 12 12 13 13 13 13 13 12 10 9 8 8 9 9 9 8 7
5 5 4 3 4 4 4 3 3 4 5 6 7 9 11 14 16 17 18 18 19 21 23 23 24 26 27 26 26 27 27 27 28 31 32 31 30 30 31 32 31 30 30 29 28 28 28 27 27 28 29 30 30 30 30 30 26 23 22 22 21 21 22 21 19 17 15 13 13 13 14 14 14 14 13 12 11 10 9 8 8 7 8 9 9
5 5 5 4 4 4 3 4 4 4 5 6 6 7 8 10 12 15 17 18 19 21 22 23 23 24 24 24 24 25 26 26 28 29 29 29 30 30 30 31 30 29 29 28 26 26 26 26 26 27 28 29 30 31 33 33 28 25 25 25 25 24 22 21 19 18 17 14 13 13 14 14 14 14 13 12 11 9 9 8 8 7 7 7 8
5 5 5 5 5 4 4 5 5 4 4 5 6 5 5 6 7 10 11 13 14 16 17 18 19 20 21 21 21 22 23 24 26 27 27 27 28 29 29 30 29 28 29 28 28 28 29 28 28 29 29 29 31 32 34 33 30 29 30 29 28 27 24 22 20 17 16 15 14 14 15 15 15 14 13 12 11 9 9 8 8 8 8 7 8
4 5 5 4 4 4 4 5 6 5 4 4 6 6 4 3 4 5 6 7 9 11 13 15 16 17 17 18 19 19 20 22 24 25 25 25 26 26 27 25 25 26 27 27 29 31 31 32 32 32 31 32 34 36 37 35 32 32 30 28 28 27 24 21 19 16 16 15 14 15 16 16 15 14 13 12 10 10 9 9 8 8 8 7 7
4 4 4 4 3 4 3 3 4 4 3 3 4 4 4 4 3 3 3 4 6 7 9 12 13 14 15 17 18 18 18 19 20 20 21 22 24 25 25 24 24 25 26 28 31 32 31 32 34 34 35 36 37 39 38 35 31 29 27 26 26 25 23 21 19 17 16 15 15 16 16 16 16 14 13 12 11 10 10 10 9 9 9 8 9
3 3 3 3 2 3 4 2 2 2 2 2 3 3 3 3 4 4 3 3 3 4 5 7 8 9 11 13 15 16 16 17 19 19 19 20 22 22 23 24 25 26 28 31 32 33 33 34 36 39 41 40 36 34 33 31 27 25 24 25 24 23 22 19 17 15 14 14 17 18 18 17 16 14 12 11 11 11 11 11 11 10 10 10 10
2 2 2 2 1 2 4 3 2 2 3 2 1 2 2 3 4 6 7 7 5 2 1 2 3 4 6 7 7 9 11 13 15 16 17 19 21 21 21 22 23 23 27 30 32 33 35 34 33 33 34 31 27 25 26 25 25 25 25 24 22 22 22 19 16 15 15 17 19 19 17 16 15 13 12 11 11 11 12 13 13 12 12 11 10
2 2 2 2 2 2 2 3 4 3 3 3 2 0 1 2 4 6 8 10 9 2 3 3 1 1 4 5 3 1 2 3 4 5 6 7 9 10 12 14 15 14 17 23 26 28 30 29 26 25 26 26 26 28 28 28 28 28 26 23 22 22 22 20 18 18 18 18 17 16 15 15 15 13 12 11 11 12 12 13 14 14 13 12 10
2 2 2 2 2 1 1 3 4 4 2 3 4 3 1 2 4 5 7 9 10 6 4 6 7 5 3 3 7 8 7 8 10 10 10 10 8 7 6 6 6 6 8 12 15 19 23 25 26 28 30 31 31 33 32 31 30 28 25 24 23 22 21 20 19 18 17 16 15 15 16 16 15 14 13 12 11 11 11 11 14 15 14 11 9
2 2 2 2 3 2 2 2 4 4 4 4 4 3 1 1 3 5 6 7 8 7 5 6 9 10 11 11 12 12 12 12 12 13 13 12 11 10 10 9 9 7 8 11 16 20 25 28 30 32 32 32 32 33 32 31 30 28 27 26 24 22 21 21 20 18 17 16 16 17 17 16 15 13 13 11 11 11 11 12 13 14 13 10 9
1 1 2 3 3 2 2 2 2 4 5 6 5 3 1 1 3 4 5 5 5 4 4 7 10 12 13 13 13 12 13 14 13 14 14 13 13 13 13 13 13 12 13 17 22 27 31 33 34 33 31 30 30 31 31 31 30 29 28 26 24 22 21 20 20 19 18 17 18 18 17 16 15 14 12 11 10 10 11 13 13 13 11 9 9
1 2 2 3 2 2 2 2 2 2 4 4 4 3 1 0 1 2 4 5 4 3 4 7 9 10 12 13 11 10 11 14 14 15 14 14 14 14 15 16 17 17 19 23 27 31 32 31 30 30 30 30 29 29 29 29 29 29 27 24 23 22 20 19 19 19 19 18 18 18 17 15 14 14 12 11 11 11 12 12 12 12 11 9 10
3 3 3 2 3 3 2 2 2 2 3 3 3 3 3 2 1 1 3 4 3 2 5 6 6 7 9 11 10 8 7 10 13 14 14 14 14 14 15 18 21 22 22 22 24 27 26 24 23 24 27 28 27 27 27 27 27 27 25 22 21 20 19 19 19 19 19 19 18 17 16 14 13 13 12 11 11 11 11 11 11 11 10 9 9
5 5 3 2 2 3 2 2 3 3 3 3 3 3 3 2 1 1 2 1 1 4 6 7 6 5 6 7 8 7 5 5 9 13 14 14 14 14 16 21 23 21 17 14 15 17 19 22 24 25 25 25 25 25 26 26 26 25 22 20 19 19 19 19 20 19 18 18 17 16 15 13 13 12 12 12 12 12 11 11 10 10 10 9 9
5 4 2 1 2 3 2 3 4 5 5 4 3 3 3 2 1 1 2 2 3 5 6 7 7 7 5 5 6 7 6 5 7 10 13 14 13 14 16 19 18 14 11 11 12 15 19 23 25 25 24 24 24 24 24 25 24 22 19 18 18 19 20 20 20 20 18 16 15 16 15 13 13 13 12 13 13 12 12 11 11 10 10 9 9
6 4 3 3 3 3 3 3 5 6 7 6 3 2 3 2 2 2 2 1 3 5 7 8 8 8 7 6 7 8 9 9 10 12 14 15 15 14 15 15 13 12 13 14 15 18 19 21 21 22 22 22 22 21 22 22 21 19 18 18 18 20 21 21 20 19 18 16 15 15 14 13 14 14 13 13 13 12 12 11 11 11 12 12 11
6 6 5 3 3 2 2 3 6 7 7 6 4 3 2 3 3 3 2 2 4 5 7 8 9 9 9 9 9 9 10 13 15 16 17 18 17 14 13 13 13 14 15 16 17 19 18 18 19 20 20 20 20 20 20 19 19 19 19 19 19 20 20 20 20 20 18 15 15 15 15 14 14 14 14 13 13 13 12 12 12 11 12 13 12
6 6 6 4 3 2 2 4 6 7 6 6 5 4 4 3 3 3 3 3 4 5 6 8 10 10 10 11 12 12 12 14 16 18 19 20 16 12 11 13 14 14 15 16 18 18 18 19 20 20 19 19 20 19 18 18 18 18 19 18 19 20 20 19 19 19 18 15 15 15 15 14 15 15 14 13 13 13 13 12 11 10 10 11 11
7 7 6 5 5 4 4 4 5 5 5 5 5 5 5 4 4 4 4 3 4 5 6 7 10 11 11 12 13 14 15 16 16 17 20 20 16 12 12 13 13 14 15 16 17 18 18 19 21 21 21 21 20 19 18 18 17 17 18 18 18 19 19 18 19 19 18 16 15 16 15 15 15 16 15 14 13 13 13 12 12 10 9 10 10
8 7 7 7 6 6 5 5 5 4 4 5 5 5 5 5 5 5 5 4 4 5 5 7 9 11 11 11 13 15 17 17 17 18 20 18 14 12 13 13 13 14 15 16 17 18 18 19 22 23 22 21 21 19 18 18 17 16 17 17 17 18 18 18 19 19 18 17 16 16 16 15 16 16 15 14 15 14 13 12 12 11 10 10 10
8 8 8 8 7 7 6 6 6 6 6 5 5 5 5 5 5 5 6 6 5 5 5 6 8 10 11 12 13 15 15 15 16 18 18 15 13 13 14 14 14 15 15 17 19 19 19 20 22 23 22 21 20 19 18 18 17 16 16 17 17 18 18 18 19 20 19 18 17 17 17 17 17 16 15 15 15 14 13 12 11 11 11 11 11
8 8 8 7 7 7 7 7 7 7 7 6 6 6 6 6 6 6 6 7 7 7 7 6 8 11 12 13 15 16 14 12 13 15 16 15 15 16 16 15 15 15 16 17 18 19 20 21 22 22 21 20 19 18 18 17 16 16 16 16 16 17 18 18 19 20 20 18 18 18 18 18 17 17 16 16 16 14 13 13 12 11 11 11 11
6 6 7 7 7 8 8 9 9 9 8 8 8 8 8 8 7 7 7 8 8 8 8 8 9 11 13 15 16 17 15 13 13 15 17 17 18 17 17 16 16 16 16 17 18 19 19 20 20 20 20 20 19 18 17 17 16 16 16 16 16 16 17 18 19 21 20 20 20 20 19 19 18 17 17 17 16 15 14 14 13 12 12 12 12
6 6 7 7 8 8 9 9 10 11 11 11 10 10 9 9 9 8 8 8 9 9 10 10 10 11 13 14 16 17 16 14 14 17 18 19 19 20 18 17 17 18 18 17 18 19 19 19 19 20 20 20 20 19 18 17 16 16 16 16 16 16 17 18 20 21 21 21 20 20 20 20 19 18 18 17 17 16 14 14 14 14 14 13 13
8 7 7 7 8 9 9 10 10 11 12 12 12 11 11 11 11 10 10 10 10 10 10 11 12 12 12 13 16 17 17 16 16 18 19 20 20 20 19 18 19 20 19 17 18 20 20 19 19 20 21 21 20 19 18 18 18 16 16 16 16 16 17 18 20 21 22 22 21 20 20 20 20 20 19 18 17 16 15 14 15 15 14 14 14
10 9 9 8 8 9 9 10 10 10 11 11 11 12 12 12 12 12 12 12 12 12 11 12 13 13 12 13 15 17 17 17 18 19 21 21 22 21 20 20 21 22 21 19 19 21 21 21 20 20 20 21 21 20 19 18 18 18 17 17 16 16 17 18 20 22 23 23 22 20 20 20 20 20 20 19 17 17 16 15 15 15 15 14 14
11 11 10 10 10 9 9 10 10 10 10 10 10 11 11 11 12 12 13 13 14 14 13 13 14 14 14 15 15 16 16 17 18 19 20 22 23 23 23 24 24 24 23 22 21 22 22 22 22 21 21 22 23 22 21 20 19 19 19 18 17 18 18 20 21 22 22 22 22 21 20 20 19 19 20 20 18 17 17 17 15 15 14 14 14
13 13 13 12 12 11 10 10 11 11 10 10 10 11 11 11 11 12 12 13 14 15 15 15 15 15 16 16 17 17 17 17 19 20 20 21 23 24 25 26 27 27 25 24 24 24 24 24 24 24 24 25 25 24 23 22 22 22 21 20 20 21 21 20 21 22 23 22 22 21 21 20 20 19 20 21 20 18 18 17 16 15 14 14 14
14 15 15 15 15 14 12 12 12 12 11 11 11 11 11 11 12 12 12 13 14 15 16 16 17 17 17 18 18 19 19 20 20 20 21 21 22 24 26 27 28 29 28 27 26 26 26 26 26 27 27 27 26 25 24 24 23 23 23 23 23 23 21 20 21 23 23 22 22 22 21 21 20 20 20 21 21 19 18 18 17 16 15 15 15
13 14 15 15 16 16 16 14 13 13 13 12 12 12 13 13 13 13 13 13 14 14 15 15 17 18 18 19 20 21 22 22 22 22 22 22 23 24 26 27 28 29 29 29 29 29 28 28 28 28 28 29 28 26 25 25 24 22 23 23 23 22 20 20 20 21 21 20 21 21 21 21 21 21 20 20 21 20 19 19 18 17 16 15 16
Wind_Direction
226 227 223 220 218 219 221 224 223 220 218 216 214 215 217 218 217 217 218 217 218 221 221 220 222 225 229 230 229 231 232 231 230 231 236 239 241 243 240 242 248 251 250 250 252 255 258 258 256 253 256 258 258 260 259 260 265 264 265 270 274 273 268 267 274 270 263 264 257 264 291 315 323 320 308 270 238 219 207 194 184 193 218 215 352
216 223 229 229 224 219 217 220 223 220 217 217 216 216 217 219 219 218 219 219 219 221 221 221 225 228 230 231 231 232 232 232 231 229 233 240 243 243 243 245 250 249 246 251 258 260 258 258 257 253 255 258 258 259 260 262 266 266 268 273 271 266 267 265 265 262 260 263 266 272 294 315 310 316 348 229 214 195 189 191 195 210 222 218 323
210 214 222 228 228 224 218 217 221 220 217 217 218 218 217 219 220 220 221 220 221 222 222 222 225 228 230 231 231 232 232 233 233 231 234 239 242 241 239 239 245 247 244 249 258 262 261 258 253 248 249 253 255 257 260 260 262 262 262 264 263 260 262 266 263 248 246 261 272 279 289 288 271 294 124 185 197 190 182 186 200 213 225 241 305
210 213 216 219 223 226 224 220 219 219 219 219 218 219 219 219 220 221 221 221 222 223 224 224 226 228 231 231 231 232 232 233 234 235 237 240 242 243 241 239 241 243 243 243 249 257 261 257 248 242 240 246 251 253 257 261 261 260 259 262 266 263 259 262 263 255 252 254 252 259 269 244 195 217 210 193 198 201 195 196 203 207 235 278 282
209 211 216 219 221 223 224 223 222 221 221 221 220 219 219 219 220 221 221 222 222 223 224 225 226 229 231 231 232 233 234 234 234 235 237 240 242 242 241 243 245 245 243 243 246 251 255 252 243 237 236 241 246 247 252 258 260 257 253 255 261 263 259 261 263 263 260 254 247 250 255 222 182 205 222 209 211 215 208 203 197 194 237 285 291
220 217 217 222 227 229 228 223 222 223 223 223 223 221 220 220 221 222 223 223 223 224 225 227 227 229 231 232 233 234 235 235 236 237 237 240 243 244 241 241 245 247 245 243 246 248 249 248 241 237 236 237 239 244 252 259 261 257 253 255 258 260 261 264 262 253 248 250 251 251 245 228 214 222 226 207 205 216 213 201 190 196 210 208 206
230 232 230 230 234 239 239 233 228 225 224 224 224 224 223 222 222 224 224 225 225 226 227 228 229 230 232 233 234 234 235 235 236 238 239 240 242 242 241 241 243 245 243 242 242 241 242 243 242 241 241 239 237 240 248 258 261 256 255 257 259 258 259 262 259 247 244 249 251 248 242 231 223 223 212 191 189 205 214 206 198 198 183 146 154
239 238 237 239 239 240 244 244 239 234 231 229 226 224 225 225 225 226 227 228 229 228 229 230 231 232 234 234 235 235 235 236 237 238 241 245 245 241 238 239 242 244 245 242 237 235 239 244 244 245 248 247 244 243 247 254 257 252 250 250 251 252 249 249 253 253 252 252 251 247 238 217 205 206 204 197 190 191 203 207 199 184 164 160 173
247 243 242 242 241 240 242 246 244 240 238 237 232 227 226 226 225 225 226 229 231 232 232 232 233 234 235 235 235 235 236 236 237 238 240 244 245 240 237 238 241 244 244 241 241 243 248 251 247 247 251 252 251 251 252 255 254 248 248 250 247 247 249 250 251 250 251 249 241 232 221 206 201 202 205 204 193 189 199 204 190 181 193 204 206
243 243 242 241 239 238 239 243 245 242 240 239 237 234 230 229 229 228 228 229 230 232 233 234 234 235 236 237 236 235 236 237 239 242 243 242 241 237 236 237 241 246 248 249 253 254 251 250 249 250 254 254 253 254 254 255 251 246 249 254 252 248 246 246 245 241 238 235 225 211 203 204 201 197 203 207 197 193 203 204 200 208 223 221 222
232 234 236 239 238 237 239 241 242 242 241 241 239 237 235 234 234 234 234 235 235 235 235 235 235 235 236 238 238 237 238 239 243 248 248 245 241 237 236 239 244 250 253 254 255 253 249 249 250 251 254 254 253 252 253 253 250 249 252 257 259 259 251 243 240 233 223 224 220 204 195 205 202 195 201 205 198 195 202 208 213 227 234 227 235
228 230 232 233 234 237 241 240 239 239 239 239 239 238 239 239 239 237 236 236 238 240 241 240 239 238 238 239 239 239 241 242 246 252 252 249 245 241 239 243 245 247 251 253 254 256 255 253 252 251 252 252 251 252 254 252 249 251 256 257 259 260 256 247 233 215 207 216 214 198 197 207 203 196 198 200 197 199 206 215 221 226 227 232 254
227 229 232 234 233 235 238 239 238 236 234 236 237 238 242 245 245 243 240 238 238 239 242 243 243 243 241 240 240 240 241 242 245 251 253 251 248 243 242 245 246 246 251 255 258 260 260 256 254 252 250 250 251 252 254 253 251 252 254 255 256 255 253 246 224 199 192 200 204 201 197 193 193 196 199 199 201 206 213 217 218 222 230 243 260
232 234 236 238 236 234 234 237 238 236 235 236 237 239 242 244 244 244 242 241 240 239 240 241 243 244 243 243 243 242 241 241 241 245 250 251 249 246 244 246 246 247 250 254 258 261 261 258 256 251 246 247 248 249 253 255 252 250 249 252 252 243 232 223 204 188 183 187 198 202 189 179 187 194 196 199 205 211 214 214 216 224 234 243 250
238 242 241 241 240 237 235 234 236 237 236 236 238 240 241 240 241 242 241 240 241 242 242 241 241 243 244 244 245 245 243 242 242 244 248 251 251 250 247 246 246 247 249 251 255 259 261 259 256 251 245 244 244 248 254 256 251 247 248 249 246 234 219 209 195 188 185 183 186 188 183 184 192 195 195 197 201 205 207 209 216 220 221 226 229
233 238 237 237 237 236 235 234 234 236 237 237 238 240 241 240 239 240 240 240 240 240 241 242 241 242 243 243 244 246 245 245 246 248 250 253 253 252 249 245 245 246 248 251 255 260 261 258 254 248 244 246 248 251 255 253 247 246 247 245 238 226 213 203 195 190 189 189 186 185 189 192 194 197 200 197 197 200 203 206 207 203 205 210 208
227 230 232 234 236 238 242 242 240 241 242 241 240 239 241 241 239 238 240 242 242 241 241 242 241 241 242 242 241 244 246 246 247 249 250 251 250 249 247 245 245 247 249 251 255 258 259 257 252 247 245 249 252 254 251 246 242 242 242 237 226 211 196 192 191 187 188 191 187 182 186 190 186 188 192 192 194 198 200 204 204 201 202 191 165
232 234 236 241 246 250 253 253 252 250 248 247 245 243 242 242 242 242 242 242 244 245 245 245 243 242 242 241 240 241 243 245 247 248 247 247 246 246 246 246 246 247 249 250 254 258 259 256 253 248 246 251 256 254 246 240 236 236 234 226 214 201 190 190 190 185 182 182 178 173 177 184 185 185 189 194 197 198 200 204 202 196 184 156 151
236 239 248 256 258 258 257 257 257 256 254 253 253 251 247 244 243 244 244 243 244 246 246 246 246 245 244 244 244 243 243 243 246 247 245 243 242 243 245 247 246 246 248 250 253 255 255 254 254 251 251 256 259 251 239 232 228 226 223 217 208 198 189 190 189 183 177 174 171 170 176 182 186 189 193 198 201 202 202 201 193 180 162 158 166
234 245 261 273 276 270 261 255 251 251 251 251 252 252 249 246 243 243 245 246 246 246 245 245 246 245 245 247 249 249 248 247 248 248 245 242 241 241 244 246 246 247 249 251 253 255 254 254 256 256 254 253 252 243 235 228 222 219 216 212 206 198 190 187 184 178 173 169 167 171 178 183 186 190 197 200 200 201 198 191 181 165 155 165 173
238 249 263 285 297 296 285 271 261 262 263 260 257 255 251 249 248 247 247 247 248 248 247 247 248 246 245 245 248 250 250 250 250 249 247 244 242 242 243 246 247 249 252 255 257 258 255 252 252 252 251 247 243 240 236 227 216 212 208 200 194 190 185 181 177 171 165 163 166 171 176 180 184 192 199 197 192 190 189 189 187 173 166 169 163
253 256 260 286 306 319 325 321 315 305 297 291 284 274 263 257 256 255 254 254 254 252 250 250 252 252 249 247 247 247 247 247 248 249 248 246 245 244 245 248 250 251 254 256 257 256 254 252 251 251 249 244 240 236 228 216 206 201 194 183 179 180 180 179 176 168 160 162 171 176 177 184 190 194 196 192 188 189 191 196 199 191 187 186 177
254 256 258 277 292 307 319 321 319 314 306 301 298 290 279 269 263 261 260 259 260 261 258 255 256 257 255 252 250 248 245 244 246 249 249 249 248 246 245 246 247 248 250 252 253 252 254 254 252 249 245 240 237 233 221 208 197 187 178 174 175 177 177 176 170 163 160 166 178 184 185 191 195 195 194 192 192 195 196 197 199 195 193 193 192
256 261 264 271 274 280 294 306 315 320 325 327 330 326 307 283 267 260 257 253 253 256 256 255 255 256 257 257 255 252 248 247 248 251 252 251 249 248 247 246 246 247 249 252 254 255 257 258 257 254 248 241 235 228 215 203 190 179 175 178 178 175 172 167 162 162 168 174 182 188 190 193 194 193 193 192 192 193 192 191 193 189 183 182 183
253 260 271 281 275 265 272 289 302 312 331 347 352 1 3 336 295 271 263 258 255 253 249 247 247 248 250 252 252 251 250 252 254 253 252 250 247 248 249 248 248 249 249 251 254 255 257 256 251 246 242 236 229 220 208 197 185 177 177 181 178 171 165 160 160 168 175 177 182 188 190 192 192 191 192 191 189 187 184 182 179 171 165 165 157
259 264 276 289 280 258 251 274 295 305 332 5 11 16 18 1 338 323 312 304 295 285 272 260 254 253 252 248 247 248 251 254 255 252 249 247 245 245 246 245 245 246 244 243 245 246 247 244 237 227 217 211 207 202 192 182 175 174 177 179 173 165 160 160 164 170 174 176 183 189 191 190 189 189 191 189 184 180 174 167 159 150 144 142 134
257 262 264 274 275 249 238 234 256 289 317 16 43 32 20 15 12 19 19 347 306 285 285 283 272 268 267 260 254 252 252 254 256 254 248 244 241 238 238 239 240 241 238 235 235 236 233 225 218 209 199 188 181 176 169 163 165 172 173 171 168 163 158 157 160 166 172 178 183 187 189 189 188 188 190 187 180 173 164 152 145 144 144 138 129
234 239 241 255 262 234 229 225 219 256 282 286 55 45 36 39 32 27 21 5 341 261 227 308 312 299 287 270 253 254 254 251 253 253 246 240 237 233 232 234 236 236 237 235 232 227 218 205 193 187 180 169 157 155 158 161 170 174 169 165 166 161 154 152 155 162 172 180 185 187 188 187 187 188 187 183 175 166 160 154 150 149 144 135 127
231 224 213 240 256 230 215 218 211 217 250 252 231 198 52 50 38 28 21 12 6 31 145 160 143 332 286 254 206 201 245 204 187 199 202 205 217 222 223 226 226 230 240 240 231 217 205 191 177 169 167 162 157 161 166 170 173 171 165 163 163 157 153 157 162 168 176 184 187 188 187 186 186 185 182 179 173 168 166 164 161 154 143 135 136
222 224 209 224 239 215 191 215 212 200 206 226 225 229 264 47 43 31 27 24 23 36 101 151 145 116 81 102 109 104 104 113 118 119 116 112 115 128 142 155 168 190 222 230 220 202 186 177 172 168 168 167 166 166 169 170 168 165 163 164 163 158 157 162 166 171 177 182 185 188 187 186 185 182 179 178 175 172 169 167 165 156 144 139 146
210 225 232 238 240 223 187 201 210 204 202 211 221 240 285 40 51 40 35 35 34 41 74 119 120 106 97 97 97 99 103 110 118 119 112 110 116 121 123 127 130 143 170 181 181 178 174 172 172 171 168 167 167 168 169 168 165 164 167 169 165 162 162 165 168 172 175 179 185 189 188 186 184 179 178 180 177 172 170 169 164 153 143 144 153
213 224 252 265 269 257 219 202 200 208 212 214 217 229 277 359 27 42 52 56 52 56 89 110 107 105 108 107 99 92 96 103 114 118 115 115 119 119 122 130 131 137 158 169 168 167 168 169 169 169 167 166 167 168 168 167 165 168 172 171 166 165 168 169 171 173 176 181 188 190 187 186 182 177 178 182 179 175 175 171 162 151 147 151 156
233 224 245 267 279 264 235 220 196 198 210 212 213 214 210 296 349 19 45 55 63 89 124 124 116 111 113 112 102 89 87 95 105 113 116 117 118 118 122 126 130 142 159 167 166 164 165 166 165 165 167 169 170 170 168 167 167 171 174 172 168 169 172 171 172 175 179 185 189 190 188 185 180 177 182 184 180 178 176 170 161 156 154 157 158
240 243 239 245 266 264 243 213 208 210 204 195 197 204 201 191 190 40 35 32 39 130 149 146 139 125 118 116 111 99 89 92 100 108 116 123 124 123 125 131 141 150 157 162 164 163 163 164 164 166 169 171 170 169 169 170 173 176 177 175 174 174 173 173 176 179 183 187 189 189 188 184 180 181 184 180 176 175 171 167 164 163 161 160 159
240 247 236 211 252 266 242 202 205 205 193 187 191 195 194 190 178 148 107 81 174 175 164 165 169 159 135 123 120 113 102 96 102 109 120 131 134 131 133 140 147 152 153 155 158 161 165 169 169 169 169 169 169 172 175 177 180 182 182 181 179 177 174 176 180 183 184 187 188 187 184 181 179 180 179 175 173 171 168 167 170 169 167 166 163
220 237 262 261 252 265 258 216 195 176 166 175 192 186 172 166 159 144 132 144 169 176 178 184 188 185 172 150 135 127 121 119 117 115 121 132 139 140 142 144 146 148 150 153 156 161 167 170 171 169 169 171 174 178 181 183 186 188 188 186 182 180 180 181 184 185 182 182 185 186 183 179 176 176 174 173 172 170 169 172 173 170 169 169 166
206 220 260 267 248 259 262 215 188 174 168 169 173 164 152 156 161 151 143 158 172 181 194 200 200 197 188 169 152 143 137 135 131 124 129 142 152 152 149 148 148 148 151 155 160 163 165 168 169 170 171 174 177 180 183 186 187 188 189 188 185 185 184 183 186 185 179 178 186 188 181 177 178 176 173 174 174 170 171 174 173 173 178 177 170
199 207 217 218 211 238 251 200 184 183 181 176 175 178 169 165 164 156 156 174 179 186 198 203 201 197 188 174 163 156 150 146 142 141 148 157 159 154 154 157 159 159 160 164 166 165 164 166 169 170 172 175 178 179 181 183 183 185 188 187 186 186 186 186 188 186 178 178 189 189 180 179 183 178 173 176 176 172 174 176 174 178 188 186 174
205 212 212 205 194 197 212 199 189 191 194 192 194 197 188 179 177 172 167 171 170 174 188 198 197 194 189 181 173 164 161 159 154 153 159 161 155 152 162 168 166 165 169 172 172 170 168 170 171 171 173 175 176 176 178 180 181 185 186 183 183 187 188 188 191 188 180 180 190 188 181 183 187 181 177 178 177 174 177 177 173 178 189 185 174
216 225 225 222 212 205 208 206 198 198 207 212 207 196 188 186 183 175 172 175 173 169 175 192 201 199 194 190 183 174 169 167 162 162 167 166 159 159 170 174 173 174 176 176 175 173 173 175 176 175 175 175 174 174 175 177 179 183 182 179 183 188 188 189 193 191 184 183 189 189 185 187 189 184 180 179 179 179 180 178 175 176 179 179 178
218 227 231 230 223 214 211 216 216 213 216 223 217 203 194 195 189 179 176 179 180 179 177 186 200 203 198 193 189 181 175 172 171 172 175 175 172 172 176 179 183 183 180 179 179 177 177 181 181 178 177 177 176 175 175 177 179 180 180 180 185 189 188 189 194 193 186 186 191 190 188 191 190 184 180 182 183 183 182 181 182 181 178 179 185
221 229 236 237 231 221 215 221 229 227 219 217 217 210 204 202 194 184 183 181 184 191 189 184 193 200 198 192 189 183 177 178 180 180 179 182 186 186 184 186 190 189 184 183 184 182 182 185 184 181 181 182 181 179 180 180 180 181 182 182 186 189 189 191 196 194 188 189 193 192 191 194 190 183 184 187 185 183 182 182 184 185 183 184 188
223 228 230 229 227 224 218 220 227 232 230 226 221 214 210 209 205 199 196 191 189 192 192 190 195 197 194 190 189 185 179 180 187 188 188 191 195 193 191 192 194 191 188 188 188 187 187 187 186 185 186 189 188 187 188 188 186 186 186 187 189 190 189 192 198 197 191 190 195 195 195 197 191 185 188 191 185 181 185 185 184 187 188 187 190
220 226 225 220 222 225 222 218 218 222 229 233 230 223 216 212 211 211 207 201 198 196 194 196 201 199 195 195 195 190 184 185 193 195 195 197 198 197 195 196 196 193 190 189 189 189 189 188 187 188 191 196 198 197 196 197 195 192 191 192 195 196 193 194 199 200 195 192 197 198 198 197 192 187 191 194 186 181 188 190 187 188 190 188 191
220 226 226 222 223 225 225 223 219 216 218 222 224 224 222 218 218 220 217 211 210 206 199 199 202 199 198 204 205 198 191 192 199 201 201 202 202 200 198 197 198 197 194 192 192 193 191 189 190 194 198 203 206 205 204 204 204 201 198 198 200 202 201 200 203 204 199 195 197 199 198 197 193 189 192 195 189 184 189 194 193 193 193 190 192
226 228 228 227 227 225 225 227 226 221 220 220 219 220 222 221 221 225 223 219 219 215 207 206 208 204 204 212 215 210 204 204 205 204 204 205 204 203 201 201 202 201 197 195 197 199 196 192 195 201 204 208 210 210 208 209 210 206 202 201 204 206 205 204 205 206 202 198 196 197 197 197 195 192 192 194 192 189 191 194 196 197 196 193 193
234 234 233 233 233 229 226 227 228 225 224 223 220 220 222 221 221 222 222 220 220 219 214 214 216 212 211 218 222 219 216 215 212 211 212 211 208 206 205 205 207 206 202 200 203 205 202 200 201 205 208 212 215 215 213 212 212 209 206 206 207 206 203 202 203 205 204 201 197 195 196 197 197 196 195 194 192 193 194 195 197 201 201 196 195
240 241 240 239 238 236 233 233 233 230 227 225 224 223 224 224 223 223 222 220 220 219 218 219 221 219 218 223 228 227 224 221 218 217 218 217 215 213 211 210 212 211 207 206 208 210 209 208 209 210 211 216 220 220 218 216 214 212 209 209 209 208 205 203 202 202 204 203 199 196 196 197 195 196 199 198 195 196 198 198 198 201 203 200 198
244 244 243 241 241 240 237 236 236 235 232 231 229 227 227 226 226 226 225 224 224 224 223 222 223 221 221 225 229 229 227 224 222 221 221 222 222 220 219 218 219 217 213 212 214 216 215 215 216 217 217 219 221 222 221 220 219 216 212 210 212 214 212 207 203 203 204 203 200 197 197 197 195 196 201 202 199 198 200 200 199 201 202 201 202
249 247 245 243 242 241 239 238 239 238 236 235 235 234 233 232 230 230 229 228 227 229 228 227 226 225 224 225 228 230 230 228 226 223 222 223 225 226 226 226 226 224 220 218 219 221 221 221 222 223 223 223 223 222 220 220 221 219 214 213 216 217 213 207 205 206 206 204 200 198 198 198 196 197 201 204 202 200 200 200 200 202 203 202 204
252 252 251 248 245 244 242 240 240 241 241 241 242 241 240 240 238 237 236 233 232 232 232 231 230 230 228 227 228 230 232 233 232 230 227 225 227 229 231 232 232 231 228 225 224 225 226 225 226 226 226 226 225 223 219 218 218 218 215 215 216 212 206 203 205 206 204 201 200 200 200 201 200 200 202 204 204 203 203 203 202 202 205 206 206